Weather History for KLWT - June, 2014

Change the Weather History Date:

Friday, June 13, 2014

  Actual Average Record
Temperature  
Mean Temperature 57 °F 57 °F  
Max Temperature 68 °F 70 °F 93 °F (1918)
Min Temperature 45 °F 45 °F 23 °F (1969)
Degree Days  
Heating Degree Days 8 8  
Month to date heating degree days 156 122  
Since 1 June heating degree days 156 122  
Since 1 July heating degree days 8504 8096  
Cooling Degree Days 0 0  
Month to date cooling degree days 0 0  
Year to date cooling degree days 0 2  
Since 1 June cooling degree days 0 0  
Growing Degree Days 6 (Base 50)    
Moisture  
Dew Point 47 °F    
Average Humidity 70    
Maximum Humidity 100    
Minimum Humidity 40    
Precipitation  
Precipitation 0.09 in 0.10 in 0.96 in (2001)
Month to date precipitation 0.55 1.50  
Year to date precipitation 6.01 7.76  
Snow  
Snow 0.00 in - - ()
Snow Depth 0.00 in    
Sea Level Pressure  
Sea Level Pressure 29.67 in    
Wind  
Wind Speed 9 mph (West)    
Max Wind Speed 30 mph    
Max Gust Speed 36 mph    
Visibility 10 miles    
Events Rain    
T = Trace of Precipitation, MM = Missing Value Source: NWS Daily Summary

Daily Weather History Graph

Daily Weather History Graph

Search for Another Location

Airport or City:

Trip Planner

Search our weather history database for the weather conditions in past years. The results will help you decide how hot, cold, wet, or windy it might be!

Date:

Astronomy

Jun. 13, 2014 Rise Set
Actual Time 5:22 AM MDT 9:14 PM MDT
Civil Twilight 4:42 AM MDT 9:53 PM MDT
Nautical Twilight 3:48 AM MDT 10:48 PM MDT
Astronomical Twilight 2:27 AM MDT 12:09 AM MDT
Moon 9:41 PM MDT (6/13) 6:10 AM MDT (6/13)
Length of Visible Light 17h 11m
Length of Day
15h 51m
Full, 100% of the Moon is Illuminated
Jun 13
Full
Jun 19
Last Quarter
Jun 27
New
Jul 5
First Quarter
Jul 12
Full

Hourly Weather History & Observations

Time (MDT) Temp. Windchill Dew Point Humidity Pressure Visibility Wind Dir Wind Speed Gust Speed Precip Events Conditions
12:54 AM 54.0 °F - 48.0 °F 80% 29.61 in 10.0 mi ESE 17.3 mph 26.5 mph N/A   Clear
1:54 AM 52.0 °F - 46.9 °F 83% 29.62 in 10.0 mi ESE 9.2 mph - N/A   Clear
2:54 AM 48.9 °F - 46.0 °F 90% 29.59 in 10.0 mi ESE 9.2 mph - N/A   Clear
3:54 AM 48.0 °F - 45.0 °F 89% 29.62 in 10.0 mi SSE 6.9 mph - N/A   Clear
4:54 AM 46.9 °F - 45.0 °F 93% 29.62 in 10.0 mi South 4.6 mph - N/A   Clear
5:54 AM 45.0 °F 39.7 °F 44.1 °F 97% 29.64 in 10.0 mi WSW 10.4 mph - N/A   Partly Cloudy
6:08 AM 46.9 °F - 46.0 °F 97% 29.70 in 10.0 mi SW 8.1 mph - N/A   Mostly Cloudy
6:17 AM 48.9 °F - 46.9 °F 93% 29.70 in 10.0 mi West 8.1 mph - N/A   Overcast
6:54 AM 51.1 °F - 50.0 °F 96% 29.64 in 10.0 mi WSW 10.4 mph - N/A   Overcast
7:10 AM 52.0 °F - 50.0 °F 93% 29.70 in 10.0 mi West 8.1 mph - N/A   Overcast
7:22 AM 52.0 °F - 50.0 °F 93% 29.70 in 10.0 mi West 4.6 mph - N/A   Overcast
7:54 AM 53.1 °F - 48.9 °F 86% 29.64 in 10.0 mi West 9.2 mph - N/A   Scattered Clouds
9:12 AM 57.0 °F - 50.0 °F 77% 29.70 in 10.0 mi West 9.2 mph - N/A   Mostly Cloudy
9:46 AM 55.9 °F - 50.0 °F 80% 29.71 in 10.0 mi WNW 12.7 mph 20.7 mph N/A   Overcast
9:54 AM 55.9 °F - 50.0 °F 80% 29.65 in 10.0 mi WNW 13.8 mph - N/A   Mostly Cloudy
10:12 AM 57.0 °F - 50.0 °F 77% 29.71 in 10.0 mi WNW 10.4 mph - N/A   Mostly Cloudy
11:54 AM 63.0 °F - 46.0 °F 54% 29.61 in 10.0 mi West 9.2 mph - N/A   Scattered Clouds
12:54 PM 64.9 °F - 43.0 °F 45% 29.60 in 10.0 mi WNW 6.9 mph 16.1 mph N/A   Clear
1:54 PM 66.0 °F - 41.0 °F 40% 29.62 in 10.0 mi WSW 5.8 mph - N/A   Mostly Cloudy
5:54 PM 57.9 °F - 48.0 °F 70% 29.73 in 10.0 mi WNW 10.4 mph - N/A   Clear
6:54 PM 57.0 °F - 46.9 °F 69% 29.71 in 10.0 mi NW 4.6 mph - N/A   Mostly Cloudy
7:54 PM 55.9 °F - 46.9 °F 72% 29.73 in 10.0 mi WNW 8.1 mph - N/A   Partly Cloudy
8:54 PM 53.1 °F - 46.9 °F 80% 29.73 in 10.0 mi SW 5.8 mph - N/A   Mostly Cloudy
9:54 PM 55.0 °F - 46.0 °F 72% 29.75 in 10.0 mi West 9.2 mph - N/A   Overcast
10:54 PM 48.9 °F - 44.1 °F 83% 29.76 in 9.0 mi WNW 15.0 mph - 0.03 in Rain Light Rain
11:54 PM 46.9 °F - 45.0 °F 93% 29.76 in 10.0 mi SW 5.8 mph - 0.00 in   Mostly Cloudy